Location: ?????????
(38.5999°N, 22.7695°E)
Time: 09:45:49
(UTC+00:00)

OAO 3 Rocket - Pass Details

Date: 23 May 2024
Orbit: 622 x 671 km, 35.0° (Epoch: 18 June)

Event Time Altitude Azimuth Distance (km) Brightness Sun altitude
Exits shadow 00:46:47 56° 177° (S) 793 3.2 -22.2°
Drops below altitude 10° 00:51:26 10° 106° (ESE) 2,084 6.0 -21.6°
Sets 00:53:51 0° 102° (ESE) 2,992 6.9 -21.3°
